Weather History for Corpus Christi, TX

Change the Weather History Date:

Thursday, December 26, 2013

  Actual Average Record
Temperature  
Mean Temperature 55 °F 57 °F  
Max Temperature 58 °F 67 °F 83 °F (1950)
Min Temperature 51 °F 47 °F 24 °F (2004)
Degree Days  
Heating Degree Days 10 9  
Month to date heating degree days 235 204  
Since 1 July heating degree days 392 305  
Cooling Degree Days 0 1  
Month to date cooling degree days 36 44  
Year to date cooling degree days 4148 3519  
Growing Degree Days 4 (Base 50)    
Moisture  
Dew Point 49 °F    
Average Humidity 75    
Maximum Humidity 89    
Minimum Humidity 61    
Precipitation  
Precipitation 0.10 in 0.06 in 1.18 in (1991)
Month to date precipitation 0.15 1.50  
Year to date precipitation 23.31 31.43  
Snow  
Snow 0.00 in - - ()
Month to date snowfall 0.0  
Since 1 July snowfall 0.0  
Snow Depth 0.00 in    
Sea Level Pressure  
Sea Level Pressure 30.33 in    
Wind  
Wind Speed 13 mph (NNE)    
Max Wind Speed 20 mph    
Max Gust Speed 24 mph    
Visibility 8 miles    
Events Rain    
T = Trace of Precipitation, MM = Missing Value Source: NWS Daily Summary

Daily Weather History Graph

Daily Weather History Graph

Search for Another Location

Airport:

Trip Planner

Search our weather history database for the weather conditions in past years. The results will help you decide how hot, cold, wet, or windy it might be!

Date:

Astronomy

Dec. 26, 2013 Rise Set
Actual Time 7:19 AM CST 5:42 PM CST
Civil Twilight 6:53 AM CST 6:08 PM CST
Nautical Twilight 6:24 AM CST 6:37 PM CST
Astronomical Twilight 5:55 AM CST 7:06 PM CST
Moon 1:11 AM CST 12:59 PM CST
Length of Visible Light 11h 15m
Length of Day
10h 23m
Last Quarter, 38% of the Moon is Illuminated
Dec 26
Last Quarter
Jan 1
New
Jan 7
First Quarter
Jan 15
Full
Jan 23
Last Quarter

Hourly Weather History & Observations

Time (CST) Temp. Dew Point Humidity Pressure Visibility Wind Dir Wind Speed Gust Speed Precip Events Conditions
12:10 AM 57.2 °F 55.4 °F 94% 30.31 in 6.0 mi NE 9.2 mph - 0.00 in Rain Light Rain
12:48 AM 57.2 °F 55.4 °F 94% 30.31 in 5.0 mi NE 12.7 mph - 0.04 in Rain Light Rain
12:51 AM 57.0 °F 55.0 °F 93% 30.31 in 5.0 mi NE 10.4 mph - 0.04 in Rain Light Rain
1:51 AM 57.0 °F 52.0 °F 83% 30.31 in 10.0 mi NE 11.5 mph - 0.00 in   Light Drizzle
2:51 AM 55.9 °F 52.0 °F 87% 30.30 in 10.0 mi NE 12.7 mph - 0.00 in   Light Drizzle
3:51 AM 55.0 °F 51.1 °F 86% 30.29 in 10.0 mi NE 15.0 mph - 0.00 in   Overcast
4:51 AM 54.0 °F 50.0 °F 86% 30.28 in 10.0 mi NE 15.0 mph - N/A   Overcast
5:51 AM 55.0 °F 48.9 °F 80% 30.30 in 10.0 mi NE 15.0 mph - N/A   Overcast
6:11 AM 53.6 °F 48.2 °F 82% 30.30 in 10.0 mi NE 16.1 mph - N/A   Overcast
6:51 AM 54.0 °F 46.0 °F 75% 30.32 in 10.0 mi NE 15.0 mph - N/A   Overcast
7:51 AM 54.0 °F 44.1 °F 69% 30.34 in 10.0 mi NE 16.1 mph - N/A   Overcast
8:51 AM 55.9 °F 43.0 °F 62% 30.35 in 10.0 mi NE 12.7 mph - N/A   Overcast
9:51 AM 55.0 °F 45.0 °F 69% 30.37 in 10.0 mi NE 15.0 mph - N/A   Overcast
10:51 AM 55.9 °F 46.0 °F 69% 30.38 in 10.0 mi NE 15.0 mph - N/A   Overcast
11:51 AM 55.0 °F 48.0 °F 77% 30.37 in 8.0 mi NE 11.5 mph - 0.00 in Rain Light Rain
12:51 PM 55.9 °F 48.9 °F 77% 30.34 in 6.0 mi North 12.7 mph - 0.01 in Rain Light Rain
1:51 PM 54.0 °F 50.0 °F 86% 30.31 in 4.0 mi North 13.8 mph - 0.00 in   Overcast
2:51 PM 54.0 °F 50.0 °F 86% 30.30 in 4.0 mi North 15.0 mph - N/A   Overcast
3:01 PM 53.6 °F 50.0 °F 88% 30.30 in 5.0 mi North 13.8 mph - N/A   Overcast
3:51 PM 54.0 °F 48.9 °F 83% 30.30 in 5.0 mi North 13.8 mph - N/A   Overcast
4:51 PM 54.0 °F 48.9 °F 83% 30.32 in 7.0 mi North 10.4 mph - 0.00 in Rain Light Rain
5:51 PM 54.0 °F 48.9 °F 83% 30.32 in 8.0 mi NNE 12.7 mph - 0.00 in   Overcast
6:51 PM 52.0 °F 46.9 °F 83% 30.32 in 9.0 mi NNE 13.8 mph - 0.00 in Rain Light Rain
7:51 PM 51.1 °F 46.9 °F 86% 30.34 in 9.0 mi NNE 13.8 mph - 0.01 in Rain Light Rain
8:51 PM 51.1 °F 48.0 °F 89% 30.35 in 9.0 mi North 13.8 mph - 0.01 in Rain Light Rain
9:51 PM 52.0 °F 48.0 °F 86% 30.35 in 9.0 mi NNE 15.0 mph - 0.00 in Rain Light Rain
10:51 PM 52.0 °F 48.0 °F 86% 30.35 in 7.0 mi NE 10.4 mph - 0.01 in Rain Light Rain
11:51 PM 51.1 °F 48.0 °F 89% 30.35 in 6.0 mi NE 12.7 mph - 0.02 in Rain Light Rain